Regional Weather Roundup
Issued by NWS Cleveland, OH

Home | Current Version | Previous Version | Graphics & Text | Print | Product List | Glossary On
Versions: 1 2 3 4 5 6 7 8 9 10 11 12 13 14 15 16 17 18 19 20 21 22 23 24 25 26 27 28 29 30 31 32 33 34 35 36 37 38 39 40 41 42 43 44 45 46 47 48 49 50
000
ASUS41 KCLE 031010
RWRCLE
OHIO REGIONAL WEATHER ROUNDUP
NATIONAL WEATHER SERVICE CLEVELAND, OH
600 AM EDT MON AUG 03 2015

NOTE: "FAIR" INDICATES FEW OR NO CLOUDS BELOW 12,000 FEET WITH NO
SIGNIFICANT WEATHER AND/OR OBSTRUCTIONS TO VISIBILITY.

OHZ001>008-015>018-024>027-034-035-043-044-031100-
   NORTHWEST OHIO

CITY           SKY/WX    TMP DP  RH WIND       PRES   REMARKS
DEFIANCE       CLOUDY    64  61  90 CALM      29.80S
FINDLAY        CLOUDY    64  61  90 S14       29.78R
TOLEDO EXPRESS CLOUDY    62  61  96 S10       29.77F
TOLEDO EXEC    CLOUDY    64  60  87 SW10      29.79R
LIMA           CLOUDY    63  61  93 S12       29.80R
$$

OHZ009>014-019>023-028>033-038-089-031100-
   NORTHEAST OHIO

CITY           SKY/WX    TMP DP  RH WIND       PRES   REMARKS
CLE-HOPKINS    LGT RAIN  63  60  90 S18       29.78F
CLE-LAKEFRONT  CLOUDY    65  60  84 S20G29    29.75F
CUY CO. ARPT   NOT AVBL
LORAIN-ELYRIA  LGT RAIN  62  59  90 S17G36    29.74F
ASHTABULA      CLOUDY    63  60  90 S13       29.79F
AKRON-CANTON   CLOUDY    65  58  78 SW12      29.88F
WOOSTER        LGT RAIN  62  59  90 W8        29.90F
MANSFIELD      LGT RAIN  61  60  97 SE17      29.82F
YOUNGSTOWN     CLOUDY    64  59  83 SW9       29.84F
$$

OHZ042-051>053-060>062-070>072-077>081-031100-
  SOUTHWEST OHIO

CITY           SKY/WX    TMP DP  RH WIND       PRES   REMARKS
CINC-COVINGTON TSTM      69  58  67 NE25G49   29.96R
CINC-LUNKEN    TSTM      63  62  97 NE16G29   29.97R FOG
HAMILTON       TSTM      64  62  93 E7        30.00R FOG
DAYTON         TSTM      63  63 100 S13       29.92F
WRIGHT-PAT AFB TSTM      63  63 100 SE7       29.94S
DAYTON GENERAL NOT AVBL
WILMINGTON     TSTM      62  59  90 NE9       29.96F
$$

OHZ036-037-039>041-045>050-054>059-063>069-073>076-082>088-031100-
  CENTRAL AND SOUTHEAST OHIO

CITY           SKY/WX    TMP DP  RH WIND       PRES   REMARKS
COLUMBUS       TSTM      64  60  87 N9        29.92F
OSU AIRPORT    TSTM      63  61  93 CALM      29.93F
BOLTON FIELD   RAIN      63  61  94 NE3       29.94F
RICKENBACK AFB RAIN      66  59  77 N8G18     29.93F
NEWARK         LGT RAIN  67  58  72 NW3       29.93S
MARION         RAIN      62  60  93 SE23      29.78F FOG
LANCASTER      CLOUDY    68  58  70 N8        29.95R
ZANESVILLE     CLOUDY    68  58  70 NW8       29.94R
NEW PHILLY     MOCLDY    66  58  75 W3        29.92R
$$


USA.gov is the U.S. government's official web portal to all federal, state and local government web resources and services.